User: anonymous   Login
Location: Unspecified
(0.0000°N, 0.0000°E)
Time: 20:28:18
(UTC+00:00)
Language:

APRIZESAT 2 (LATINSAT D) - Orbit

View from above orbital plane
View from above orbital plane
View from above satellite
View from above satellite

Ground track
Ground track

The orbit data is extracted from the following two-line orbital elements,

1 28366U 04025A   18264.68794512 -.00000012 +00000-0 +98661-5 0  9998
2 28366 098.3159 168.7336 0108848 108.8096 252.4935 14.36651894745853
Epoch (UTC): 21 September 2018 16:30:38
Eccentricity: 0.0108848
inclination: 98.3159°
perigee height: 692 km
apogee height: 847 km
right ascension of ascending node: 168.7336°
argument of perigee: 108.8096°
revolutions per day: 14.36651894
mean anomaly at epoch: 252.4935°
orbit number at epoch: 74585

The dashed part of the orbit path shows where the satellite is in the earth's shadow,  

DLR